CUTE-1 (CO-55) 1 27844U 03031E 25347.29256032 .00000603 00000+0 28053-3 0 9991 2 27844 98.6766 353.1884 0009762 11.8884 348.2523 14.24180071165215 CUBESAT XI-IV (CO-57) 1 27848U 03031J 25347.54050272 .00000460 00000+0 22167-3 0 9992 2 27848 98.6792 353.2944 0009956 28.5917 331.5805 14.23487973164962 CUBESAT XI-V 1 28895U 05043F 25347.66528784 .00002702 00000+0 43902-3 0 9992 2 28895 98.2721 134.7586 0015348 75.5169 284.7739 14.71905301 74452 CUTE-1.7+APD II (CO-65) 1 32785U 08021C 25347.63468432 .00007241 00000+0 48670-3 0 9994 2 32785 97.8079 320.7360 0007893 307.1083 52.9422 15.07058234957221 CANX-2 1 32790U 08021H 25347.43267199 .00007308 00000+0 53593-3 0 9999 2 32790 97.8427 319.0832 0009567 319.3644 40.6866 15.03780135956871 SEEDS II (CO-66) 1 32791U 08021J 25347.49398468 .00026754 00000+0 10628-2 0 9997 2 32791 97.7442 332.6654 0001455 200.9568 159.1609 15.25296529958910 SWISSCUBE 1 35932U 09051B 25347.66060825 .00002013 00000+0 41159-3 0 9999 2 35932 98.4141 247.2574 0008083 71.9311 288.2770 14.61962013862040 BEESAT-1 1 35933U 09051C 25347.64639337 .00001694 00000+0 35304-3 0 9997 2 35933 98.4071 247.2529 0006571 83.9186 276.2763 14.61281718862085 ITUPSAT1 1 35935U 09051E 25347.61376983 .00001564 00000+0 33564-3 0 9993 2 35935 98.4167 246.5978 0008719 92.6350 267.5848 14.60035819861656 TISAT 1 1 36799U 10035E 25347.36848075 .00030042 00000+0 12582-2 0 9993 2 36799 98.0593 273.8043 0003423 132.6214 227.5310 15.23492274839333 AEROCUBE 4.5A 1 38767U 12048K 25347.65675358 .00054499 00000+0 91953-3 0 9992 2 38767 64.6427 316.2786 0066665 231.5097 128.0052 15.48799643343612 STRAND-1 1 39090U 13009E 25347.50515846 .00000595 00000+0 21499-3 0 9995 2 39090 98.3821 167.3770 0009707 68.7873 291.4350 14.37006166670390 BRITE-AUSTRIA 1 39091U 13009F 25347.51041733 .00000391 00000+0 14776-3 0 9990 2 39091 98.3887 166.6110 0011322 76.2200 284.0246 14.36436697670394 NEE-01 PEGASO 1 39151U 13018B 25347.36155240 .00005197 00000+0 51299-3 0 9999 2 39151 98.0953 120.8590 0013799 58.5420 301.7145 14.92357844682973 POPACS 1 1 39268U 13055D 25347.67666101 .00246718 19225-4 71231-3 0 9994 2 39268 80.9543 210.4110 0114124 42.8575 318.1511 15.82765183643720 POPACS 2 1 39269U 13055E 25347.30309553 .00026492 00000+0 47796-3 0 9990 2 39269 80.9946 355.8913 0448108 68.2413 296.5857 14.83441923635577 POPACS 3 1 39270U 13055F 25347.66006579 .00010773 00000+0 26820-3 0 9993 2 39270 81.0045 69.7405 0567044 273.4405 80.2122 14.51869796611596 ZACUBE-1 (TSHEPISOSAT) 1 39417U 13066B 25347.45937291 .00007657 00000+0 62361-3 0 9996 2 39417 97.8063 304.0058 0041922 144.6921 215.7091 14.99098597652889 WNISAT-1 1 39423U 13066H 25347.69349219 .00001481 00000+0 27774-3 0 9994 2 39423 97.6929 145.3578 0165452 96.1603 265.8475 14.57644980639706 TRITON-1 1 39427U 13066M 25347.72238626 .00004784 00000+0 58656-3 0 9993 2 39427 97.8312 256.8157 0093278 117.9015 243.1682 14.80499825646635 GOMX-1 1 39430U 13066Q 25347.51489821 .00004062 00000+0 62314-3 0 9994 2 39430 97.6589 194.5918 0129722 314.0844 44.9742 14.68591947642656 CUBEBUG-2 (LO-74) 1 39440U 13066AA 25347.34276464 .00008788 00000+0 84500-3 0 9993 2 39440 97.8707 291.0135 0057903 283.8135 75.6644 14.91985029649262 NEE-02 KRYSAOR 1 39441U 13066AB 25347.38305588 .00005602 00000+0 62827-3 0 9998 2 39441 97.8726 283.2410 0066442 319.9935 39.6395 14.85604981648608 FUNCUBE-1 (AO-73) 1 39444U 13066AE 25347.45235346 .00014617 00000+0 98824-3 0 9995 2 39444 97.8060 310.7392 0040444 113.5262 247.0222 15.05977764651672 UWE-3 1 39446U 13066AG 25347.42380017 .00008395 00000+0 75212-3 0 9992 2 39446 97.8477 297.7742 0049512 216.9177 142.8632 14.95114818649807 BRITE-CA1 (TORONTO) 1 40020U 14033L 25347.59176009 .00002084 00000+0 32212-3 0 9991 2 40020 97.9488 115.3062 0079905 150.3575 210.2197 14.72214648614908 DUCHIFAT-1 1 40021U 14033M 25347.61984896 .00038950 00000+0 95153-3 0 9990 2 40021 98.0791 19.5263 0007458 32.1673 328.0025 15.40707944626987 NANOSATC-BR1 1 40024U 14033Q 25347.51295198 .00018746 00000+0 76068-3 0 9997 2 40024 98.0911 359.2313 0005801 102.9636 257.2247 15.24655474625620 QB50P1 1 40025U 14033R 25347.54484126 .00012258 00000+0 66879-3 0 9993 2 40025 98.0970 341.1912 0010491 132.6338 227.5779 15.14474334624892 QB50P2 1 40032U 14033Y 25347.47458812 .00013886 00000+0 81464-3 0 9991 2 40032 98.0639 328.3750 0009972 87.6371 272.6000 15.11839165624574 PERSEUS-M2 1 40037U 14033AD 25347.61653889 .00002092 00000+0 19811-3 0 9997 2 40037 97.9757 289.7423 0011445 187.2599 172.8457 14.94703103623053 PERSEUS-M1 1 40039U 14033AF 25347.40019353 .00003136 00000+0 29374-3 0 9993 2 40039 97.9462 283.8202 0011343 186.3948 173.7129 14.94762626622873 POLYITAN-1 1 40042U 14033AJ 25347.53557369 .00020121 00000+0 79093-3 0 9991 2 40042 98.1084 352.1766 0010463 77.8296 282.4111 15.25669427625217 TIGRISAT 1 40043U 14033AK 25347.37581177 .00004181 00000+0 49634-3 0 9994 2 40043 97.7557 137.0660 0049489 325.4361 34.3640 14.84130179618052 AEROCUBE 6A 1 40045U 14033AM 25347.45176758 .00012584 00000+0 11287-2 0 9998 2 40045 97.7034 151.9206 0039762 277.6599 82.0107 14.95286213618836 AEROCUBE 6B 1 40046U 14033AN 25347.69324239 .00008623 00000+0 75075-3 0 9999 2 40046 97.7033 151.5924 0037848 268.9598 90.7287 14.96609985618981 CANX-4 1 40055U 14034C 25347.56454156 .00001902 00000+0 25394-3 0 9990 2 40055 98.3358 210.8016 0011649 245.9467 114.0525 14.80791084617057 CANX-5 1 40056U 14034D 25347.56506814 .00001928 00000+0 25720-3 0 9991 2 40056 98.3361 210.8348 0011637 246.2877 113.7113 14.80807297607867 UKUBE-1 1 40074U 14037F 25347.64764705 .00012341 00000+0 76831-3 0 9998 2 40074 98.4140 327.0700 0003295 75.5943 284.5649 15.09757192620523 BRITE-PL2 (HEWELIUSZ) 1 40119U 14049B 25347.26971629 .00003401 00000+0 32666-3 0 9999 2 40119 97.8993 93.1369 0014524 11.9017 348.2543 14.93663678613684 AEROCUBE 5C 1 40965U 15058B 25347.62833722 .00005943 00000+0 52558-3 0 9995 2 40965 64.7670 119.3185 0137699 135.8105 225.4105 14.90179578337993 AEROCUBE 7 1 40966U 15058C 25347.65826143 .00007072 00000+0 57628-3 0 9996 2 40966 64.7628 105.1870 0127969 135.4225 225.7268 14.93984894338227 FOX-1A (AO-85) 1 40967U 15058D 25347.68130927 .00005720 00000+0 51714-3 0 9996 2 40967 64.7745 134.9271 0134778 129.6363 231.6735 14.89670309 85926 SINOD-D 1 1 40968U 15058E 25347.65564068 .00007488 00000+0 61457-3 0 9999 2 40968 64.7752 119.1508 0123179 127.7583 233.4768 14.94099562 88920 SNAP-3 ALICE 1 40970U 15058G 25347.50873525 .00058987 00000+0 17187-2 0 9997 2 40970 64.7616 11.5881 0044217 119.6578 240.8970 15.34052133 88194 LMRST-SAT 1 40971U 15058H 25347.65794884 .00005710 00000+0 51775-3 0 9992 2 40971 64.7754 130.9998 0137256 131.4473 229.8525 14.89324750 85911 SNAP-3 EDDIE 1 40972U 15058J 25347.49061246 .00057941 00000+0 16413-2 0 9996 2 40972 64.7538 3.5149 0047347 123.6341 236.9324 15.34792352 90317 PROPCUBE 3 1 40973U 15058K 25347.66376774 .00006845 00000+0 57434-3 0 9997 2 40973 64.7686 111.5199 0130319 133.4869 227.7168 14.92705068 87099 BISONSAT 1 40974U 15058L 25347.53452879 .00013257 00000+0 72612-3 0 9995 2 40974 64.7627 51.6940 0086747 129.0726 231.8155 15.11267364 87514 SNAP-3 JIMI 1 40975U 15058M 25347.65120581 .00009464 00000+0 67836-3 0 9998 2 40975 64.7663 85.7320 0112660 131.6286 229.4548 14.99828535 86379 PROPCUBE 1 (FLORA) 1 40976U 15058N 25347.64693879 .00005300 00000+0 49971-3 0 9998 2 40976 64.7737 149.7599 0136669 133.6008 227.6541 14.87991062 88648 SINOD-D 3 1 40977U 15058P 25347.65725675 .00007676 00000+0 65711-3 0 9998 2 40977 64.7721 134.4502 0125226 132.3070 228.8738 14.92310050 87052 HORYU-4 1 41340U 16012D 25347.58444645 .00047781 00000+0 79632-3 0 9999 2 41340 30.9947 304.1819 0006887 241.1518 118.8440 15.50691915541685 RAVAN 1 41849U 16067B 25347.62983885 .00034985 00000+0 89284-3 0 9998 2 41849 98.0164 212.8542 0006145 310.4992 49.5716 15.39407743499012 CELTEE 1 1 41850U 16067C 25347.52425267 .00008376 00000+0 42430-3 0 9991 2 41850 98.0882 196.4409 0001929 109.2089 250.9351 15.17263793497704 OPTICUBE 04 1 41851U 16067D 25347.49842537 .00005070 00000+0 32804-3 0 9993 2 41851 98.0828 185.0006 0016747 29.4272 330.7894 15.08561929497164 AEROCUBE 8D 1 41852U 16067E 25347.53551343 .00011311 00000+0 51191-3 0 9996 2 41852 98.0902 198.7141 0005051 62.4729 297.7018 15.21077032497813 AEROCUBE 8C 1 41853U 16067F 25347.52196878 .00011064 00000+0 49805-3 0 9998 2 41853 98.0764 196.1838 0005723 357.4266 2.6938 15.21267610497800 CORVUS BC2 1 42846U 17042X 25347.43616237 .00005948 00000+0 42533-3 0 9996 2 42846 97.3841 151.4308 0014459 32.7375 327.4745 15.04729750459112 CORVUS BC1 1 42847U 17042Y 25347.45668759 .00006640 00000+0 47143-3 0 9997 2 42847 97.3884 152.1299 0012596 12.2140 347.9390 15.04976856459147 MAKERSAT 0 1 43016U 17073D 25347.64487324 .00022022 00000+0 73879-3 0 9995 2 43016 97.4892 224.5506 0125887 208.0975 151.3431 15.23516288438139 SIRION PATHFINDER-2 1 43759U 18099B 25347.67191648 .00007596 00000+0 44137-3 0 9996 2 43759 97.4551 36.1236 0008197 214.0070 146.0637 15.12349599384562 CORVUS BC4 1 43767U 18099K 25347.64021526 .00005958 00000+0 36463-3 0 9992 2 43767 97.4358 31.0018 0006997 284.5376 75.5078 15.10561223384377 SPACEBEE-7 1 43816U 18099BL 25347.61521159 .00105401 00000+0 13550-2 0 9996 2 43816 97.4716 63.3294 0003095 162.3505 197.7859 15.58726618385667 SHIELDS 1 1 43850U 18104B 25347.50020443 .00184231 00000+0 75750-3 0 9998 2 43850 85.0059 263.1688 0008165 103.1068 257.1120 15.85455482390773 M2 PATHFINDER 1 45727U 20037E 25347.51253036 .00004626 00000+0 34312-3 0 9996 2 45727 97.8139 171.7538 0013643 64.0063 296.2565 15.03512124297582 NETSAT-4 1 46504U 20068U 25347.54379149 .00017847 00000+0 49794-3 0 9990 2 46504 97.8599 336.8917 0004258 261.0004 99.0757 15.36807159287196 NETSAT-3 1 46505U 20068V 25347.52166481 .00019727 00000+0 57576-3 0 9998 2 46505 97.8618 335.3857 0004076 287.3044 72.7752 15.35373029287128 NETSAT-1 1 46506U 20068W 25347.51627811 .00015595 00000+0 55374-3 0 9990 2 46506 97.8668 331.6677 0004266 312.7931 47.2949 15.29130971286878 NETSAT-2 1 46507U 20068X 25347.54301187 .00021597 00000+0 59252-3 0 9997 2 46507 97.8611 336.3666 0002986 318.0881 42.0134 15.37291314287134 WILDTRACKCUBE-SIMBA 1 47941U 21022K 25347.67976576 .00104896 00000+0 97055-3 0 9992 2 47941 97.4053 258.3993 0006484 24.4200 335.7366 15.67174372262239 GREENCUBE (IO-117) 1 53109U 22080E 25347.04311871 -.00000003 00000+0 00000+0 0 9998 2 53109 70.1576 2.9754 0009015 327.4898 32.5206 6.42583237 80106 SITRO-AIS 5 (KATYS) 1 57176U 23091L 25347.63519804 .00014960 00000+0 60910-3 0 9996 2 57176 97.5349 45.1532 0013530 41.6168 318.6096 15.24510768136027 SITRO-AIS 6 (CHIRKIN) 1 57192U 23091AC 25347.61769733 .00008519 00000+0 36449-3 0 9993 2 57192 97.5350 45.0012 0013762 43.9910 316.2419 15.22985413136019 SITRO-AIS 8 (ANOKHIN) 1 57193U 23091AD 25347.66930594 .00016721 00000+0 64268-3 0 9998 2 57193 97.5342 46.1347 0012746 39.6644 320.5524 15.26423275136091 SITRO-AIS 7 (FARTUSHNIY) 1 57194U 23091AE 25347.65555867 .00008830 00000+0 37999-3 0 9997 2 57194 97.5350 44.9398 0013611 44.4364 315.7962 15.22780438136015 SITRO-AIS 10 (BURDAEV) 1 57199U 23091AK 25347.70988630 .00019538 00000+0 65453-3 0 9999 2 57199 97.5359 49.6226 0008370 23.0211 337.1403 15.30940822136316 SITRO-AIS 9 (SHCHUKIN) 1 57201U 23091AM 25347.68939443 .00019014 00000+0 64287-3 0 9991 2 57201 97.5357 49.4460 0008373 23.3421 336.8198 15.30648386136301 SITRO-AIS 12 (SMIRENNIY) 1 57204U 23091AQ 25347.64551485 .00018992 00000+0 63781-3 0 9998 2 57204 97.5368 49.7679 0008121 17.3144 342.8372 15.30869596136317 SITRO-AIS 11 (SHEFFER) 1 57208U 23091AU 25347.63586525 .00019164 00000+0 63817-3 0 9996 2 57208 97.5366 49.9096 0008025 17.3580 342.7934 15.31142306136329 SITRO-AIS 25 1 59066U 24039R 25347.67813807 .00007548 00000+0 61409-3 0 9991 2 59066 95.3948 107.7282 0148090 255.7689 102.7049 14.91436150 97055 SITRO-AIS 26 1 59067U 24039S 25347.65624490 .00006924 00000+0 56568-3 0 9995 2 59067 95.3951 107.6455 0148427 256.2636 102.2030 14.91265894 97042 SITRO-AIS 27 1 59068U 24039T 25347.67565700 .00007442 00000+0 60324-3 0 9997 2 59068 95.3950 107.8505 0147553 255.1701 103.3139 14.91634241 97060 SITRO-AIS 28 1 59071U 24039U 25347.59047339 .00008377 00000+0 67786-3 0 9992 2 59071 95.3951 107.8295 0147467 255.3698 103.1137 14.91681615 97054 GRBBETA 1 60237U 24128C 25347.68171418 .00006621 00000+0 46564-3 0 9994 2 60237 61.9892 146.2603 0056265 96.7611 263.9888 15.04768778 78339 OOV-CUBE (TUBSAT-30) 1 60240U 24128F 25347.61250750 .00004213 00000+0 32743-3 0 9997 2 60240 61.9940 152.1454 0058460 94.4261 266.3512 15.01615813 78230 ROBUSTA-3A (MEDITERRAN*) 1 60243U 24128J 25347.66094807 .00009422 00000+0 59693-3 0 9994 2 60243 61.9859 142.7254 0056179 91.1205 269.6326 15.08235360 78402 LASARSAT 1 62391U 24247Q 25346.93281372 .00034206 00000+0 10064-2 0 9992 2 62391 44.9763 219.5604 0002072 142.4633 217.6397 15.34549713 54597 CROCUBE 1 62394U 24247T 25347.33811664 .00041309 00000+0 11851-2 0 9990 2 62394 44.9741 216.6082 0003417 141.9584 218.1544 15.35258903 54664